Year,Month,Day,Hour,Minute,Value (Times are PST for temperature in C)
2019,03,17,11,36,12.40
2019,03,17,11,37,12.40
2019,03,17,11,38,12.40
2019,03,17,11,39,12.40
2019,03,17,11,40,12.50
2019,03,17,11,41,12.50
2019,03,17,11,42,12.50
2019,03,17,11,43,12.60
2019,03,17,11,44,12.60
2019,03,17,11,45,12.60
2019,03,17,11,46,12.70
2019,03,17,11,47,12.70
2019,03,17,11,48,12.70
2019,03,17,11,49,12.80
2019,03,17,11,50,12.80
2019,03,17,11,51,12.80
2019,03,17,11,52,12.80
2019,03,17,11,53,12.80
2019,03,17,11,54,12.80
2019,03,17,11,55,12.80
2019,03,17,11,56,12.70
2019,03,17,11,57,12.70
2019,03,17,11,58,12.70
2019,03,17,11,59,12.60
2019,03,17,12,00,12.60
2019,03,17,12,01,12.60
2019,03,17,12,02,12.60
2019,03,17,12,03,12.60
2019,03,17,12,04,12.50
2019,03,17,12,05,12.50
2019,03,17,12,06,12.60
2019,03,17,12,07,12.60
2019,03,17,12,08,12.50
2019,03,17,12,09,12.50
2019,03,17,12,10,12.60
2019,03,17,12,11,12.60
2019,03,17,12,12,12.60
2019,03,17,12,13,12.60
2019,03,17,12,14,12.60
2019,03,17,12,15,12.60
2019,03,17,12,16,12.60
2019,03,17,12,17,12.60
2019,03,17,12,18,12.70
2019,03,17,12,19,12.70
2019,03,17,12,20,12.80
2019,03,17,12,21,12.80
2019,03,17,12,22,12.80
2019,03,17,12,23,12.80
2019,03,17,12,24,12.90
2019,03,17,12,25,12.90
2019,03,17,12,26,12.90
2019,03,17,12,27,12.90
2019,03,17,12,28,12.90
2019,03,17,12,29,12.90
2019,03,17,12,30,12.90
2019,03,17,12,31,12.90
2019,03,17,12,32,12.90
2019,03,17,12,33,12.90
2019,03,17,12,34,12.90
2019,03,17,12,35,12.90
2019,03,17,12,36,12.90
2019,03,17,12,37,12.90
2019,03,17,12,38,12.80
2019,03,17,12,39,12.70
2019,03,17,12,40,12.60
2019,03,17,12,41,12.50
2019,03,17,12,42,12.50
2019,03,17,12,43,12.50
2019,03,17,12,44,12.60
2019,03,17,12,45,12.60
2019,03,17,12,46,12.70
2019,03,17,12,47,12.70
2019,03,17,12,48,12.80
2019,03,17,12,49,12.80
2019,03,17,12,50,12.80
2019,03,17,12,51,12.70
2019,03,17,12,52,12.80
2019,03,17,12,53,12.70
2019,03,17,12,54,12.70
2019,03,17,12,55,12.70
2019,03,17,12,56,12.60
2019,03,17,12,57,12.60
2019,03,17,12,58,12.70
2019,03,17,12,59,12.70
2019,03,17,13,00,12.70
2019,03,17,13,01,12.70
2019,03,17,13,02,12.70
2019,03,17,13,03,12.70
2019,03,17,13,04,12.70
2019,03,17,13,05,12.70
2019,03,17,13,06,12.70
2019,03,17,13,07,12.70
2019,03,17,13,08,12.70
2019,03,17,13,09,12.80
2019,03,17,13,10,12.80
2019,03,17,13,11,12.80
2019,03,17,13,12,12.90
2019,03,17,13,13,12.90
2019,03,17,13,14,12.90
2019,03,17,13,15,12.90
2019,03,17,13,16,12.80
2019,03,17,13,17,12.80
2019,03,17,13,18,12.80
2019,03,17,13,19,12.90
2019,03,17,13,20,12.90
2019,03,17,13,21,12.90
2019,03,17,13,22,12.90
2019,03,17,13,23,13.00
2019,03,17,13,24,13.00
2019,03,17,13,25,13.10
2019,03,17,13,26,13.10
2019,03,17,13,27,13.20
2019,03,17,13,28,13.20
2019,03,17,13,29,13.20
2019,03,17,13,30,13.20
2019,03,17,13,31,13.20
2019,03,17,13,32,13.20
2019,03,17,13,33,13.30
2019,03,17,13,34,13.30
2019,03,17,13,35,13.40
2019,03,17,13,36,13.50
2019,03,17,13,37,13.60
2019,03,17,13,38,13.60
2019,03,17,13,39,13.70
2019,03,17,13,40,13.70
2019,03,17,13,41,13.70
2019,03,17,13,42,13.70
2019,03,17,13,43,13.70
2019,03,17,13,44,13.70
2019,03,17,13,45,13.80
2019,03,17,13,46,13.80
2019,03,17,13,47,13.80
2019,03,17,13,48,13.70
2019,03,17,13,49,13.70
2019,03,17,13,50,13.70
2019,03,17,13,51,13.70
2019,03,17,13,52,13.70
2019,03,17,13,53,13.70
2019,03,17,13,54,13.70
2019,03,17,13,55,13.70
2019,03,17,13,56,13.70
2019,03,17,13,57,13.70
2019,03,17,13,58,13.70
2019,03,17,13,59,13.70
2019,03,17,14,00,13.60
2019,03,17,14,01,13.50
2019,03,17,14,02,13.50
2019,03,17,14,03,13.40
2019,03,17,14,04,13.40
2019,03,17,14,05,13.40
2019,03,17,14,06,13.40
2019,03,17,14,07,13.40
2019,03,17,14,08,13.40
2019,03,17,14,09,13.50
2019,03,17,14,10,13.50
2019,03,17,14,11,13.60
2019,03,17,14,12,13.70
2019,03,17,14,13,13.70
2019,03,17,14,14,13.80
2019,03,17,14,15,13.80
2019,03,17,14,16,13.90
2019,03,17,14,17,13.90
2019,03,17,14,18,14.00
2019,03,17,14,19,14.00
2019,03,17,14,20,14.00
2019,03,17,14,21,14.10
2019,03,17,14,22,14.10
2019,03,17,14,23,14.00
2019,03,17,14,24,14.00
2019,03,17,14,25,14.00
2019,03,17,14,26,14.00
2019,03,17,14,27,14.00
2019,03,17,14,28,14.00
2019,03,17,14,29,14.00
2019,03,17,14,30,14.00
2019,03,17,14,31,13.90
2019,03,17,14,32,14.00
2019,03,17,14,33,14.00
2019,03,17,14,34,14.00
2019,03,17,14,35,14.10
2019,03,17,14,36,14.10
2019,03,17,14,37,14.10
2019,03,17,14,38,14.10
2019,03,17,14,39,14.10
2019,03,17,14,40,14.10
2019,03,17,14,41,14.10
2019,03,17,14,42,14.10
2019,03,17,14,43,14.10
2019,03,17,14,44,14.10
2019,03,17,14,45,14.10
2019,03,17,14,46,14.20
2019,03,17,14,47,14.20
2019,03,17,14,48,14.20
2019,03,17,14,49,14.20
2019,03,17,14,50,14.20
2019,03,17,14,51,14.20
2019,03,17,14,52,14.20
2019,03,17,14,53,14.20
2019,03,17,14,54,14.20
2019,03,17,14,55,14.20
2019,03,17,14,56,14.20
2019,03,17,14,57,14.30
2019,03,17,14,58,14.20
2019,03,17,14,59,14.20
2019,03,17,15,00,14.20
2019,03,17,15,01,14.20
2019,03,17,15,02,14.10
2019,03,17,15,03,14.10
2019,03,17,15,04,14.00
2019,03,17,15,05,14.00
2019,03,17,15,06,14.00
2019,03,17,15,07,14.00
2019,03,17,15,08,14.10
2019,03,17,15,09,14.10
2019,03,17,15,10,14.20
2019,03,17,15,11,14.20
2019,03,17,15,12,14.20
2019,03,17,15,13,14.20
2019,03,17,15,14,14.20
2019,03,17,15,15,14.20
2019,03,17,15,16,14.20
2019,03,17,15,17,14.20
2019,03,17,15,18,14.20
2019,03,17,15,19,14.30
2019,03,17,15,20,14.40
2019,03,17,15,21,14.50
2019,03,17,15,22,14.60
2019,03,17,15,23,14.70
2019,03,17,15,24,14.70
2019,03,17,15,25,14.70
2019,03,17,15,26,14.60
2019,03,17,15,27,14.60
2019,03,17,15,28,14.50
2019,03,17,15,29,14.50
2019,03,17,15,30,14.40
2019,03,17,15,31,14.40
2019,03,17,15,32,14.30
2019,03,17,15,33,14.30
2019,03,17,15,34,14.30
2019,03,17,15,35,14.30
2019,03,17,15,36,14.30
2019,03,17,15,37,14.20
2019,03,17,15,38,14.20
2019,03,17,15,39,14.30
2019,03,17,15,40,14.30
2019,03,17,15,41,14.30
2019,03,17,15,42,14.40
2019,03,17,15,43,14.40
2019,03,17,15,44,14.50
2019,03,17,15,45,14.50
2019,03,17,15,46,14.50
2019,03,17,15,47,14.60
2019,03,17,15,48,14.60
2019,03,17,15,49,14.50
2019,03,17,15,50,14.40
2019,03,17,15,51,14.40
2019,03,17,15,52,14.30
2019,03,17,15,53,14.30
2019,03,17,15,54,14.30
2019,03,17,15,55,14.30
2019,03,17,15,56,14.30
2019,03,17,15,57,14.30
2019,03,17,15,58,14.20
2019,03,17,15,59,14.20
2019,03,17,16,00,14.10
2019,03,17,16,01,14.10
2019,03,17,16,02,14.10
2019,03,17,16,03,14.10
2019,03,17,16,04,14.10
2019,03,17,16,05,14.10
2019,03,17,16,06,14.00
2019,03,17,16,07,14.00
2019,03,17,16,08,13.90
2019,03,17,16,09,13.90
2019,03,17,16,10,13.90
2019,03,17,16,11,14.00
2019,03,17,16,12,14.00
2019,03,17,16,13,14.10
2019,03,17,16,14,14.10
2019,03,17,16,15,14.10
2019,03,17,16,16,14.20
2019,03,17,16,17,14.20
2019,03,17,16,18,14.20
2019,03,17,16,19,14.20
2019,03,17,16,20,14.20
2019,03,17,16,21,14.30
2019,03,17,16,22,14.30
2019,03,17,16,23,14.40
2019,03,17,16,24,14.50
2019,03,17,16,25,14.50
2019,03,17,16,26,14.50
2019,03,17,16,27,14.60
2019,03,17,16,28,14.60
2019,03,17,16,29,14.60
2019,03,17,16,30,14.60
2019,03,17,16,31,14.60
2019,03,17,16,32,14.60
2019,03,17,16,33,14.60
2019,03,17,16,34,14.60
2019,03,17,16,35,14.60
2019,03,17,16,36,14.60
2019,03,17,16,37,14.60
2019,03,17,16,38,14.70
2019,03,17,16,39,14.70
2019,03,17,16,40,14.80
2019,03,17,16,41,14.80
2019,03,17,16,42,14.80
2019,03,17,16,43,14.90
2019,03,17,16,44,14.90
2019,03,17,16,45,14.90
2019,03,17,16,46,14.90
2019,03,17,16,47,14.80
2019,03,17,16,48,14.80
2019,03,17,16,49,14.80
2019,03,17,16,50,14.70
2019,03,17,16,51,14.70
2019,03,17,16,52,14.70
2019,03,17,16,53,14.60
2019,03,17,16,54,14.60
2019,03,17,16,55,14.60
2019,03,17,16,56,14.60
2019,03,17,16,57,14.60
2019,03,17,16,58,14.60
2019,03,17,16,59,14.60
2019,03,17,17,00,14.60
2019,03,17,17,01,14.60
2019,03,17,17,02,14.70
2019,03,17,17,03,14.70
2019,03,17,17,04,14.70
2019,03,17,17,05,14.70
2019,03,17,17,06,14.60
2019,03,17,17,07,14.60
2019,03,17,17,08,14.60
2019,03,17,17,09,14.50
2019,03,17,17,10,14.50
2019,03,17,17,11,14.60
2019,03,17,17,12,14.60
2019,03,17,17,13,14.60
2019,03,17,17,14,14.50
2019,03,17,17,15,14.50
2019,03,17,17,16,14.50
2019,03,17,17,17,14.50
2019,03,17,17,18,14.60
2019,03,17,17,19,14.60
2019,03,17,17,20,14.60
2019,03,17,17,21,14.60
2019,03,17,17,22,14.50
2019,03,17,17,23,14.50
2019,03,17,17,24,14.50
2019,03,17,17,25,14.50
2019,03,17,17,26,14.50
2019,03,17,17,27,14.50
2019,03,17,17,28,14.50
2019,03,17,17,29,14.50
2019,03,17,17,30,14.60
2019,03,17,17,31,14.60
2019,03,17,17,32,14.70
2019,03,17,17,33,14.70
2019,03,17,17,34,14.80
2019,03,17,17,35,14.80
2019,03,17,17,36,14.80
2019,03,17,17,37,14.90
2019,03,17,17,38,14.90
2019,03,17,17,39,14.90
2019,03,17,17,40,14.90
2019,03,17,17,41,14.90
2019,03,17,17,42,14.90
2019,03,17,17,43,14.90
2019,03,17,17,44,14.90
2019,03,17,17,45,14.90
2019,03,17,17,46,15.00
2019,03,17,17,47,15.00
2019,03,17,17,48,15.00
2019,03,17,17,49,15.00
2019,03,17,17,50,15.00
2019,03,17,17,51,15.00
2019,03,17,17,52,15.10
2019,03,17,17,53,15.10
2019,03,17,17,54,15.00
2019,03,17,17,55,15.00
2019,03,17,17,56,15.00
2019,03,17,17,57,15.10
2019,03,17,17,58,15.10
2019,03,17,17,59,15.10
2019,03,17,18,00,15.10
2019,03,17,18,01,15.10
2019,03,17,18,02,15.10
2019,03,17,18,03,15.10
2019,03,17,18,04,15.10
2019,03,17,18,05,15.10
2019,03,17,18,06,15.10
2019,03,17,18,07,15.10
2019,03,17,18,08,15.00
2019,03,17,18,09,15.00
2019,03,17,18,10,15.00
2019,03,17,18,11,14.90
2019,03,17,18,12,14.80
2019,03,17,18,13,14.70
2019,03,17,18,14,14.50
2019,03,17,18,15,14.40
2019,03,17,18,16,14.30
2019,03,17,18,17,14.20
2019,03,17,18,18,14.20
2019,03,17,18,19,14.10
2019,03,17,18,20,14.00
2019,03,17,18,21,13.90
2019,03,17,18,22,13.90
2019,03,17,18,23,13.80
2019,03,17,18,24,13.80
2019,03,17,18,25,13.70
2019,03,17,18,26,13.70
2019,03,17,18,27,13.70
2019,03,17,18,28,13.60
2019,03,17,18,29,13.60
2019,03,17,18,30,13.60
2019,03,17,18,31,13.50
2019,03,17,18,32,13.50
2019,03,17,18,33,13.50
2019,03,17,18,34,13.40
2019,03,17,18,35,13.40
2019,03,17,18,36,13.40
2019,03,17,18,37,13.40
2019,03,17,18,38,13.40
2019,03,17,18,39,13.30
2019,03,17,18,40,13.30
2019,03,17,18,41,13.20
2019,03,17,18,42,13.20
2019,03,17,18,43,13.10
2019,03,17,18,44,13.10
2019,03,17,18,45,13.00
2019,03,17,18,46,13.00
2019,03,17,18,47,12.90
2019,03,17,18,48,12.90
2019,03,17,18,49,12.80
2019,03,17,18,50,12.70
2019,03,17,18,51,12.70
2019,03,17,18,52,12.60
2019,03,17,18,53,12.60
2019,03,17,18,54,12.60
2019,03,17,18,55,12.50
2019,03,17,18,56,12.50
2019,03,17,18,57,12.50
2019,03,17,18,58,12.50
2019,03,17,18,59,12.40
2019,03,17,19,00,12.40
2019,03,17,19,01,12.40
2019,03,17,19,02,12.40
2019,03,17,19,03,12.40
2019,03,17,19,04,12.30
2019,03,17,19,05,12.30
2019,03,17,19,06,12.30
2019,03,17,19,07,12.30
2019,03,17,19,08,12.20
2019,03,17,19,09,12.20
2019,03,17,19,10,12.20
2019,03,17,19,11,12.10
2019,03,17,19,12,12.10
2019,03,17,19,13,12.00
2019,03,17,19,14,12.00
2019,03,17,19,15,11.90
2019,03,17,19,16,11.90
2019,03,17,19,17,11.90
2019,03,17,19,18,11.80
2019,03,17,19,19,11.80
2019,03,17,19,20,11.80
2019,03,17,19,21,11.80
2019,03,17,19,22,11.70
2019,03,17,19,23,11.70
2019,03,17,19,24,11.70
2019,03,17,19,25,11.70
2019,03,17,19,26,11.60
2019,03,17,19,27,11.60
2019,03,17,19,28,11.50
2019,03,17,19,29,11.50
2019,03,17,19,30,11.50
2019,03,17,19,31,11.50
2019,03,17,19,32,11.50
2019,03,17,19,33,11.50
2019,03,17,19,34,11.10
2019,03,17,19,35,11.00
2019,03,17,19,36,10.90
2019,03,17,19,37,10.80
2019,03,17,19,38,10.80
2019,03,17,19,39,10.70
2019,03,17,19,40,10.70
2019,03,17,19,41,10.60
2019,03,17,19,42,10.50
2019,03,17,19,43,10.50
2019,03,17,19,44,10.40
2019,03,17,19,45,10.40
2019,03,17,19,46,10.30
2019,03,17,19,47,10.30
2019,03,17,19,48,10.30
2019,03,17,19,49,10.20
2019,03,17,19,50,10.20
2019,03,17,19,51,10.20
2019,03,17,19,52,10.10
2019,03,17,19,53,10.10
2019,03,17,19,54,10.10
2019,03,17,19,55,10.10
2019,03,17,19,56,10.10
2019,03,17,19,57,10.10
2019,03,17,19,58,10.10
2019,03,17,19,59,10.10
2019,03,17,20,00,10.10
2019,03,17,20,01,10.10
2019,03,17,20,02,10.10
